Location: G�ppingen
(48.7089°N, 9.6563°E)
Time: 17:35:35
(UTC+02:00)

DELFI C3 - Visible Passes

Search period start: 14 October 2019 00:00
Search period end: 24 October 2019 00:00
Orbit: 535 x 554 km, 97.5° (Epoch: 14 October)

Date Brightness Start Highest point End Pass type
(mag) Time Alt. Az. Time Alt. Az. Time Alt. Az.
14 Oct ? 21:33:39 16° NNW 21:33:39 16° NNW 21:34:32 10° NNW visible
15 Oct ? 21:27:51 16° N 21:27:51 16° N 21:28:38 10° N visible
16 Oct ? 21:22:02 15° N 21:22:02 15° N 21:22:43 10° N visible
17 Oct ? 21:16:13 14° N 21:16:13 14° N 21:16:48 10° N visible
18 Oct ? 21:10:24 13° N 21:10:24 13° N 21:10:51 10° N visible
19 Oct ? 21:04:35 12° N 21:04:35 12° N 21:04:54 10° N visible
20 Oct ? 20:58:45 11° N 20:58:45 11° N 20:58:56 10° N visible
21 Oct ? 20:52:56 10° N 20:52:56 10° N 20:52:57 10° N visible
